Location: Copper Mountain Observatory
(34.1350°N, 116.3120°W)
Time: 04:04:14
(UTC-07:00)

Daily predictions for brighter satellites

Satellite Brightness Start Highest point End
(mag) Time Altitude Azimuth Time Altitude Azimuth Time Altitude Azimuth
CZ-2C R/B 3.6 00:08:14 10° NNE 00:12:02 45° N 00:12:02 45° N
SeaSat 1 3.9 00:19:51 34° N 00:19:51 34° N 00:22:40 10° NNW
USA 267 4.2 00:16:46 10° NNE 00:22:49 42° NW 00:25:23 30° W
NOSS 3-1 (C) 4.1 00:26:47 10° NNW 00:34:37 76° ENE 00:34:45 76° ENE
SL-16 R/B 3.3 00:31:49 10° NNW 00:35:24 41° NNW 00:35:24 41° NNW
Lacrosse 5 3.6 00:40:43 30° N 00:40:43 30° N 00:43:29 10° NNE
USA 234 4.2 00:52:05 31° E 00:54:26 42° NE 01:00:29 10° NNW
Lacrosse 5 rocket 3.9 00:59:49 10° NNW 01:01:39 22° NNW 01:01:39 22° NNW
NOSS 3-1 (A) 4.0 00:59:04 10° NNW 01:06:48 87° NNW 01:06:48 87° NNW
Cosmos 2219 4.4 01:13:01 35° NE 01:13:01 35° NE 01:16:26 10° NNE
COSMOS 2428 4.0 01:11:22 10° N 01:16:27 33° ENE 01:16:27 33° ENE
Cosmos 2360 Rocket 3.2 01:13:49 10° NNW 01:17:33 43° NNW 01:17:33 43° NNW
Cosmos 2322 Rocket 4.2 01:25:34 10° NW 01:27:23 18° WNW 01:27:23 18° WNW
Cosmos 1725 Rocket 4.3 01:38:18 10° N 01:44:08 63° ENE 01:44:08 63° ENE
Cosmos 2333 Rocket 3.8 01:44:18 10° N 01:49:13 29° ENE 01:50:57 24° E
Cosmos 2297 Rocket 3.6 01:56:55 29° E 01:56:55 29° E 02:01:07 10° NE
Cosmos 2219 Rocket 2.9 01:58:28 10° N 02:03:57 47° ENE 02:04:23 46° E
Cosmos 2237 Rocket 3.5 02:15:38 10° N 02:20:48 36° ENE 02:23:27 24° ESE
NPP 3.8 02:19:53 10° NNE 02:24:51 70° ENE 02:24:51 70° ENE
Lacrosse 4 Rocket 4.1 02:28:51 12° E 02:28:51 12° E 02:29:56 10° E
SL-16 R/B 3.8 02:26:03 19° SE 02:29:53 37° ENE 02:35:27 10° N
Cosmos 2227 Rocket 2.1 02:33:48 83° NNE 02:33:48 83° NNE 02:39:15 10° NNE
USA 234 3.9 02:39:22 38° W 02:39:22 38° W 02:43:37 10° NW
Aureole 2 Rocket 4.0 02:37:06 10° N 02:40:29 41° NE 02:40:29 41° NE
Cosmos 1140 Rocket 3.6 02:41:38 65° NNW 02:41:38 65° NNW 02:46:21 10° NNE
Cosmos 614 Rocket 4.0 02:42:51 78° N 02:42:51 78° N 02:47:44 10° NNE
SL-08 R/B 3.4 02:45:31 77° N 02:45:31 77° N 02:50:09 10° N
Cosmos 2151 4.0 02:47:03 42° NNW 02:47:03 42° NNW 02:49:55 10° N
Cosmos 1850 Rocket 4.0 02:47:49 75° E 02:47:49 75° E 02:52:58 10° NNE
Meteor 2-10 4.2 02:44:00 10° NNW 02:48:27 62° NW 02:48:27 62° NW
Cosmos 1741 Rocket 3.9 02:53:15 80° SE 02:53:26 82° ESE 02:58:47 10° NNE
Resurs 1-4 Rocket 2.4 02:48:20 10° NNE 02:53:34 58° E 02:54:22 52° SE
ADEOS 4.0 02:51:23 10° NNE 02:56:31 55° E 02:57:25 49° SE
ADEOS Rocket 3.6 02:49:07 10° NNE 02:56:43 80° ESE 02:59:38 43° S
AQUA 4.0 02:52:47 10° N 02:57:04 59° NW 02:57:04 59° NW
Cosmos 1900 4.2 02:58:02 81° NNW 02:58:02 81° NNW 03:02:54 10° NNE
ATLAS 2AS CENTAUR R/B 2.8 02:50:10 10° NW 02:58:03 72° WSW 03:01:00 40° S
COSMOS 2428 4.2 02:55:47 10° NW 02:58:26 22° WNW 02:58:26 22° WNW
Cosmos 1151 Rocket 3.8 02:56:50 10° NNW 02:59:54 43° NW 02:59:54 43° NW
Cosmos 1455 3.1 02:58:37 10° N 03:02:19 45° E 03:02:19 45° E
Cosmos 2082 3.8 03:03:00 57° W 03:03:27 59° WNW 03:09:00 10° NNE
Meteor 1-11 4.5 03:07:22 49° W 03:07:40 50° W 03:13:14 10° N
CZ-2D R/B 2.0 03:03:15 10° NNE 03:08:29 80° ESE 03:09:26 60° S
Cosmos 1570 Rocket 4.4 03:06:30 10° N 03:11:49 63° ENE 03:15:08 23° SSE
Meteor 1-27 4.2 03:06:54 10° NNW 03:12:40 66° W 03:13:36 57° SW
Tsikada Rocket 4.4 03:10:21 30° SSE 03:13:31 60° E 03:19:47 10° NNE
ARIANE 5 R/B 2.4 03:13:08 10° NNE 03:18:14 87° WNW 03:19:11 60° SSW
Cosmos 1703 4.4 03:20:33 33° NW 03:20:33 33° NW 03:23:16 10° N
GPS 2-04 Rocket1 2.7 03:20:18 81° ENE 03:20:18 81° ENE 03:24:22 10° E
Cosmos 1707 Rocket 4.2 03:16:35 10° N 03:20:53 53° E 03:22:41 31° SE
Cosmos 1626 3.6 03:24:32 28° NW 03:24:32 28° NW 03:26:51 10° NNW
Cosmos 1072 Rocket 4.5 03:21:50 10° NNW 03:27:52 61° W 03:29:52 41° SSW
MOS 1 Rocket 4.1 03:26:10 10° NNE 03:31:16 55° E 03:34:17 25° SSE
Cosmos 1666 Rocket 3.5 03:30:27 57° S 03:31:21 87° E 03:35:47 10° N
Cosmos 1513 Rocket 4.5 03:26:54 10° N 03:33:17 74° W 03:36:34 30° S
Cosmos 2333 Rocket 3.0 03:28:22 10° NW 03:32:52 32° W 03:32:52 32° W
Cosmos 1891 Rocket 4.4 03:28:51 10° N 03:35:10 73° W 03:38:25 30° S
CZ-3B DEB 4.4 03:28:00 30° SW 03:36:45 87° NW 03:51:22 10° NE
Cosmos 2297 Rocket 3.2 03:38:44 27° W 03:40:10 31° WNW 03:45:09 10° N
USA 161 3.7 03:41:53 16° ENE 03:41:54 16° ENE 03:43:14 10° NNE
UNKNOWN OBJECT B 2.7 03:39:04 10° N 03:43:05 88° W 03:44:01 52° SSW
Cosmos 1980 4.3 03:40:30 10° NW 03:45:36 35° WSW 03:46:07 34° WSW
Cosmos 2219 Rocket 3.8 03:43:32 10° NW 03:46:02 18° W 03:46:02 18° W
Cosmos 1805 Rocket 4.2 03:47:45 36° W 03:48:12 37° W 03:52:19 10° NNW
Cosmos 1464 Rocket 4.3 03:43:06 10° NNW 03:48:51 44° W 03:51:06 31° SW
ISS -3.3 03:47:33 10° NW 03:50:47 59° NE 03:54:00 10° ESE
ATLAS 3B CENTAUR R/B 3.2 03:37:06 10° W 03:51:18 55° SSW 03:56:29 10° ESE
BREEZE-M DEB 4.4 03:50:23 18° WNW 03:52:04 23° NW 03:54:18 10° NNE
Cosmos 1241 Rocket 4.4 03:51:09 10° NNW 03:57:31 69° WSW 04:03:43 10° SSE
DELTA 2 R/B (1) 4.0 03:55:02 20° W 03:58:53 57° NNW 04:04:21 10° ENE
Cosmos 2208 Rocket 4.2 03:54:12 10° NNW 03:59:12 49° WSW 04:02:13 23° SSW
USA 102 3.5 03:55:49 10° NNE 03:59:04 55° NW 03:59:04 55° NW
Cosmos 2237 Rocket 3.1 04:00:05 10° NW 04:04:36 25° WSW 04:05:10 25° WSW
Okean O Rocket 3.1 04:01:12 10° NNE 04:05:07 32° E 04:09:01 10° SSE
SL-16 R/B 2.1 03:59:29 10° NNW 04:05:07 68° WSW 04:10:43 10° S
Lacrosse 4 Rocket 1.9 04:05:12 31° WSW 04:06:34 42° WNW 04:10:33 10° N
Cosmos 2227 4.2 04:03:29 23° SSW 04:07:14 88° WNW 04:13:01 10° NNE
Cosmos 468 Rocket 4.0 04:02:07 10° NNW 04:07:19 85° ENE 04:12:28 10° SSE
GP-B 4.5 04:03:33 10° NNE 04:07:42 38° E 04:11:50 10° SSE
Cosmos 1634 Rocket 4.3 04:02:30 10° N 04:08:41 70° E 04:14:48 10° SSE
Cosmos 1933 4.2 04:05:46 10° N 04:09:47 52° E 04:13:46 10° SSE
ATLAS 5 CENTAUR R/B 3.1 04:07:16 12° S 04:10:57 34° ESE 04:15:18 10° NE
SL-16 R/B 3.3 04:11:08 23° SW 04:13:28 29° W 04:18:44 10° NW
BREEZE-M DEB (TANK) 4.5 04:02:51 10° NW 04:15:30 39° WSW 04:19:35 10° S
Cosmos 1470 Rocket 3.4 04:12:59 21° SSW 04:15:49 73° W 04:20:08 10° N
Cosmos 1633 Rocket 3.9 04:15:39 25° WSW 04:17:12 32° W 04:21:08 10° NNW
OAO 3 Copernicus 4.4 04:13:45 14° W 04:18:04 58° SSW 04:23:02 10° ESE
Cosmos 2227 Rocket 4.3 04:16:26 10° WNW 04:18:21 12° NW 04:20:16 10° NNW
MOZ.5/SAFIR/RUBIN 5/SL-8 4.0 04:15:33 15° S 04:19:17 48° W 04:23:55 10° NNW
Sich 1 4.3 04:18:35 21° WSW 04:19:56 25° WNW 04:23:33 10° NNW
CZ-2D R/B 4.4 04:21:35 10° N 04:25:09 30° WNW 04:27:08 20° WSW
Cosmos 1400 Rocket 2.7 04:23:59 12° S 04:27:30 86° E 04:31:27 10° N
Cosmos 1814 Rocket 4.0 04:24:19 10° NNW 04:29:41 84° WSW 04:35:02 10° SSE
Cosmos 1763 Rocket 3.7 04:26:01 10° NNW 04:31:15 75° ENE 04:36:23 10° SSE
Cosmos 1892 3.3 04:28:15 10° S 04:31:58 58° E 04:35:43 10° NNE
Resurs 1-4 Rocket 3.9 04:29:52 10° NNW 04:32:52 15° WNW 04:35:28 11° W
Cosmos 2263 Rocket 2.8 04:35:01 10° S 04:40:26 56° ESE 04:45:53 10° NNE
CZ-3 R/B 3.6 04:00:25 10° W 04:41:37 68° SSW 04:50:15 10° ESE
PAYLOAD B 4.3 04:36:54 10° NNE 04:42:26 82° ESE 04:47:55 10° SSW
ADEOS II 2.1 04:38:02 10° N 04:43:19 82° WNW 04:48:34 10° SSW
Cosmos 1354 Rocket 4.0 04:42:20 10° SSW 04:47:39 85° WNW 04:52:57 10° NNE
CZ-2D R/B 4.2 04:46:44 10° NW 04:47:50 11° WNW 04:48:57 10° WNW
CZ-4B R/B 3.0 04:44:25 10° N 04:48:46 67° WNW 04:52:54 10° SSW
NOSS 3-4 (A) 3.9 04:42:26 10° NW 04:49:31 63° WSW 04:57:01 10° SSE
NOSS 3-4 (C) 3.9 04:42:32 10° NW 04:49:38 63° WSW 04:57:08 10° SSE
In-Cosmos 22 Rocket 4.4 04:45:10 10° SSW 04:50:20 50° W 04:55:29 10° N
PSLV R/B 3.5 04:46:12 10° N 04:50:26 83° WNW 04:54:37 10° SSW
OAO 3 Rocket 3.5 04:46:45 13° WSW 04:51:07 58° SSE 04:55:56 10° E
Cosmos 371 Rocket 3.3 04:46:29 10° NNW 04:51:14 63° WSW 04:55:57 10° S
Meteor 1-26 Rocket 4.2 04:46:52 10° N 04:52:37 86° W 04:58:14 10° S
Landsat 4 3.9 04:49:10 10° S 04:52:50 50° W 04:56:33 10° NNW
IRS-1C Rocket 4.1 04:50:24 10° NNE 04:55:42 83° WNW 05:00:58 10° SSW
USA 215 3.7 04:49:31 10° NE 04:55:59 61° SE 05:02:25 10° SSW
Okean 1-7 4.3 04:54:25 10° N 04:58:29 43° E 05:02:32 10° SSE
GPS 2-04 Rocket1 3.4 04:55:59 10° W 04:59:50 37° SSW 05:03:47 10° SE
Meteosat 1 Rocket2 3.7 04:56:20 10° WSW 04:59:51 31° S 05:03:05 10° ESE
Meteor 2-10 Rocket 3.8 05:00:51 10° NNW 05:05:35 44° W 05:10:22 10° SSW
Cosmos 1867 3.6 05:03:01 10° SSW 05:08:27 76° WNW 05:13:55 10° NNE
Abrixas rocket 3.6 05:05:29 10° SSW 05:08:28 32° SE 05:11:29 10° ENE
